Flag for China Weather past 2 weeks in Chengdu, Sichuan, China

Now
77 °F

Passing clouds.


Feels Like: 79 °F
Forecast: 69 / 81 °F
Wind: 3 mph from Southeast

Location: Chengdu Airport

Current Time: Oct 2, 2014 at 7:19:05 PM

Latest Report: Oct 2, 2014 at 7:00 PM


Visibility: N/A

Pressure: 29.92 "Hg

Humidity: 65%

Dew point: 64 °F

Location of ChengduLocation

Historic Weather in Chengdu — Graph

°F

Chengdu temperature yesterday

Maximum temperature yesterday: 84 °F (at 4:00 PM)
Minimum temperature yesterday: 70 °F (at 1:00 AM)
Average temperature yesterday: 74 °F

Past Weeks' High & Low Weather Summary

 TemperatureHumidityPressure
High86 °F (Sep 28, 4:00 PM)94% (Sep 18, 8:00 AM)30.12 "Hg (Sep 18, 8:00 AM)
Low63 °F (Sep 23, 9:00 AM)33% (Sep 28, 4:00 PM)29.80 "Hg (Sep 20, 4:00 PM)
Average72 °F76%29.95 "Hg
* Reported Sep 17 6:00 PM — Oct 2 6:00 PM, Chengdu, Weather by CustomWeather, © 2014

Note: Actual official high and low records may vary slightly from our data, if they occured in-between our weather recording intervals... More about our weather records

Advertising

Chengdu weather history for previous 24 hours

 ConditionsComfort  
Time TempWeatherWind HumidityBarometerVisibility
6:00 PM
Oct 2
79 °FPassing clouds.6 mph61%29.92 "HgN/A
5:00 PM82 °FScattered clouds.6 mph51%29.92 "HgN/A
4:00 PM84 °FPassing clouds.8 mph45%29.92 "HgN/A
3:00 PM84 °FPassing clouds.3 mph48%29.92 "HgN/A
2:00 PM82 °FScattered clouds.6 mph55%29.95 "HgN/A
1:00 PM81 °FPassing clouds.3 mph58%30.01 "Hg4 mi
12:00 PM79 °FFog.1 mph65%30.04 "Hg2 mi
11:00 AM75 °FFog.3 mph74%30.07 "Hg2 mi
10:00 AM73 °FFog.3 mph83%30.07 "Hg2 mi
9:00 AM70 °FFog.1 mph88%30.07 "Hg1 mi
8:00 AM68 °FFog.3 mph94%30.07 "Hg1 mi
7:00 AM66 °FFog.1 mph94%30.04 "Hg1 mi
6:00 AM68 °FFog.1 mph88%30.04 "Hg1 mi
5:00 AM68 °FFog.1 mph94%30.04 "Hg1 mi
4:00 AM68 °FFog.1 mph88%30.04 "Hg2 mi
3:00 AM68 °FFog.No wind94%30.04 "Hg2 mi
2:00 AM70 °FFog.1 mph83%30.04 "Hg3 mi
1:00 AM70 °FFog.No wind83%30.07 "Hg3 mi
12:00 AM73 °FClear.3 mph74%30.04 "Hg4 mi
11:00 PM
Oct 1
72 °FClear.No wind78%30.07 "Hg10 mi
10:00 PM75 °FPassing clouds.1 mph69%30.04 "HgN/A
9:00 PM77 °FClear.1 mph65%30.04 "Hg10 mi
8:00 PM77 °FClear.1 mph61%30.01 "Hg10 mi
7:00 PM77 °FClear.1 mph61%29.98 "Hg10 mi
Weather by CustomWeather, © 2014

See weather overviewHow to use our weather pages